Location: Dötzum
(52.0808°N, 9.8063°E)
Time: 04:32:14
(UTC+00:00)

COSMOS 2428 - Pass Details

Date: 27 May 2022
Orbit: 847 x 854 km, 70.9° (Epoch: 24 June)

Event Time Altitude Azimuth Distance (km) Brightness Sun altitude
Exits shadow 00:59:52 - 250° (WSW) 2,698 4.9 -13.3°
Reaches altitude 10° 01:00:33 10° 253° (WSW) 2,472 4.7 -13.3°
Maximum altitude 01:05:37 33° 317° (NW) 1,403 4.1 -13.0°
Drops below altitude 10° 01:10:44 10° 20° (NNE) 2,483 6.6 -12.6°
Sets 01:13:27 0° 31° (NNE) 3,422 8.0 -12.4°
